Weather in Zagnitkov

Ukraine / Odesa District     48°02′37″N   28°52′57″E
temp.,
°C
wind,
m/s
gust,
m/s
humid.,
%
clouds,
%
prec.,
mm/h
press.,
hPa
HPBL,
m
24 may, tue
tue2400:00+9n12860 0.0 101310
03:00+8n11881 0.0 101310
06:00+8nw11885 0.0 101410
09:00+14n22685 0.0 1014460
12:00+18nnw124964 0.0 10141878
15:00+19nw124073 0.0 10142224
18:00+19ssw224893 0.0 1013455
21:00+15e1160100 0.0 101515
25 may, wed
wed2500:00+12e3761100 0.0 1017124
03:00+10ese365980 0.0 1018109
06:00+10ese33655 0.0 101859
09:00+16se455920 0.0 1018391
12:00+20s555158 0.0 10181578
15:00+21s5751100 0.0 10171643
18:00+21sse475630 0.0 1016804
21:00+17sse7136228 0.0 1016392
26 may, thu
thu2600:00+14s6155945 0.0 1016478
03:00+13s6147687 0.1 1016450
06:00+12ssw5991100 0.5 1015373
09:00+16wnw5108898 0.5 1016563
12:00+20nw796219 0.2 10171367
15:00+22nw694421 0.2 10172494
18:00+21nnw475284 0.0 1017925
21:00+15nw2272100 0.0 101816
27 may, fri
fri2700:00+14wsw227293 0.0 101912
03:00+15sw3566100 0.0 101886
06:00+16wsw385911 0.0 1018202
09:00+19wnw575911 0.0 1018703
12:00+22w57491 0.0 10171645
15:00+23w564584 0.0 10152256
18:00+23wsw35453 0.0 10131931
21:00+19s33615 0.0 101235
28 may, sat
sat2800:00+19s396162 0.0 1011244
03:00+15nnw712848 0.0 1011470
06:00+12nw4108562 0.0 1013365
09:00+14nw4666100 0.0 1013447
12:00+15nw3461100 0.0 1013633
15:00+17wnw4553100 0.0 10131302
18:00+14wsw1275100 0.6 1014275
21:00+13w1180100 0.8 101515